When you browse on this site, cookies collect data to enhance your experience and personalize the content and advertising you see.
Visit our Privacy Policy to learn more. By continuing to use the site, you agree to this use of cookies and data.
  • In Österreich
  • Länderverzeichnis
  • Für 7 Tage
  • Wassertemperatur
  • Wetterkarte
  • News
  • Widgets
  • user-avatar
    Anmelden

    Stündliche Wetter Bugojno

    Heute, 24 Oktober, Donnerstag

    Zeit Temperatur Niederschläge Wind Luftdruck Luftfeuchtigkeit
    00:00 +15°C° 0 mm 1 m/S 713 mmHg 64%
    01:00 +15°C° 0 mm 1 m/S 713 mmHg 64%
    02:00 +15°C° 0 mm 1 m/S 712 mmHg 62%
    03:00 +15°C° 0 mm 1 m/S 712 mmHg 61%
    04:00 +14°C° 0 mm 1 m/S 712 mmHg 59%
    05:00 +14°C° 0 mm 1 m/S 712 mmHg 58%
    06:00 +14°C° 0 mm 1 m/S 712 mmHg 57%
    07:00 +15°C° 0 mm 1 m/S 712 mmHg 56%
    08:00 +18°C° 0 mm 1 m/S 712 mmHg 51%
    09:00 +21°C° 0 mm 1 m/S 713 mmHg 45%
    10:00 +24°C° 0 mm 1 m/S 713 mmHg 40%
    11:00 +24°C° 0 mm 1 m/S 712 mmHg 38%
    12:00 +25°C° 0 mm 1 m/S 712 mmHg 35%
    13:00 +26°C° 0 mm 1 m/S 712 mmHg 33%
    14:00 +24°C° 0 mm 1 m/S 711 mmHg 39%
    15:00 +23°C° 0 mm 1 m/S 711 mmHg 45%
    16:00 +21°C° 0 mm 1 m/S 710 mmHg 51%
    17:00 +19°C° 0 mm 1 m/S 710 mmHg 54%
    18:00 +18°C° 0 mm 1 m/S 710 mmHg 56%
    19:00 +15°C° 0 mm 1 m/S 710 mmHg 58%
    20:00 +14°C° 0 mm 1 m/S 710 mmHg 58%
    21:00 +14°C° 0 mm 1 m/S 710 mmHg 57%
    22:00 +13°C° 0 mm 1 m/S 711 mmHg 56%
    23:00 +13°C° 0 mm 1 m/S 711 mmHg 54%

    Morgen, 25 Oktober, Freitag

    Zeit Temperatur Niederschläge Wind Luftdruck Luftfeuchtigkeit
    00:00 +13°C° 0 mm 1 m/S 711 mmHg 53%
    01:00 +13°C° 0 mm 1 m/S 711 mmHg 52%
    02:00 +12°C° 0 mm 1 m/S 711 mmHg 50%
    03:00 +12°C° 0 mm 1 m/S 711 mmHg 49%
    04:00 +12°C° 0 mm 1 m/S 711 mmHg 48%
    05:00 +12°C° 0 mm 1 m/S 711 mmHg 48%
    06:00 +12°C° 0 mm 1 m/S 711 mmHg 48%
    07:00 +13°C° 0 mm 1 m/S 712 mmHg 48%
    08:00 +15°C° 0 mm 1 m/S 712 mmHg 43%
    09:00 +17°C° 0 mm 0 m/S 713 mmHg 39%
    10:00 +20°C° 0 mm 0 m/S 714 mmHg 34%
    11:00 +23°C° 0 mm 1 m/S 714 mmHg 33%
    12:00 +23°C° 0 mm 1 m/S 714 mmHg 33%
    13:00 +24°C° 0 mm 1 m/S 714 mmHg 32%
    14:00 +23°C° 0 mm 1 m/S 714 mmHg 40%
    15:00 +20°C° 0 mm 2 m/S 714 mmHg 48%
    16:00 +19°C° 0 mm 2 m/S 714 mmHg 56%
    17:00 +18°C° 0 mm 1 m/S 714 mmHg 63%
    18:00 +15°C° 0 mm 1 m/S 714 mmHg 71%
    19:00 +13°C° 0 mm 1 m/S 714 mmHg 78%
    20:00 +13°C° 0 mm 1 m/S 714 mmHg 80%
    21:00 +13°C° 0 mm 1 m/S 715 mmHg 82%
    22:00 +12°C° 0 mm 1 m/S 715 mmHg 84%
    23:00 +12°C° 0 mm 1 m/S 715 mmHg 84%

    übermorgen, 26 Oktober, Samstag

    Zeit Temperatur Niederschläge Wind Luftdruck Luftfeuchtigkeit
    00:00 +12°C° 0 mm 1 m/S 715 mmHg 84%
    01:00 +10°C° 0 mm 0 m/S 715 mmHg 84%
    02:00 +10°C° 0 mm 0 m/S 715 mmHg 83%
    03:00 +10°C° 0 mm 0 m/S 715 mmHg 83%
    04:00 +10°C° 0 mm 0 m/S 715 mmHg 82%
    05:00 +10°C° 0 mm 0 m/S 715 mmHg 80%
    06:00 +10°C° 0 mm 0 m/S 715 mmHg 78%
    07:00 +11°C° 0 mm 0 m/S 715 mmHg 76%
    08:00 +14°C° 0 mm 0 m/S 716 mmHg 67%
    09:00 +18°C° 0 mm 1 m/S 716 mmHg 58%
    10:00 +21°C° 0 mm 1 m/S 717 mmHg 49%
    11:00 +23°C° 0 mm 1 m/S 717 mmHg 45%
    12:00 +22°C° 0 mm 0 m/S 717 mmHg 42%
    13:00 +23°C° 0 mm 0 m/S 716 mmHg 38%
    14:00 +21°C° 0 mm 0 m/S 716 mmHg 45%
    15:00 +20°C° 0 mm 0 m/S 715 mmHg 51%
    16:00 +18°C° 0 mm 0 m/S 715 mmHg 57%
    17:00 +17°C° 0 mm 0 m/S 715 mmHg 61%
    18:00 +15°C° 0 mm 0 m/S 715 mmHg 65%
    19:00 +14°C° 0 mm 0 m/S 715 mmHg 69%
    20:00 +13°C° 0 mm 0 m/S 715 mmHg 68%
    21:00 +13°C° 0 mm 0 m/S 715 mmHg 68%
    22:00 +14°C° 0 mm 1 m/S 715 mmHg 68%
    23:00 +14°C° 0 mm 1 m/S 715 mmHg 66%

    27 Oktober, Sonntag

    Zeit Temperatur Niederschläge Wind Luftdruck Luftfeuchtigkeit
    00:00 +13°C° 0 mm 1 m/S 715 mmHg 64%
    01:00 +13°C° 0 mm 1 m/S 715 mmHg 62%
    02:00 +13°C° 0 mm 1 m/S 715 mmHg 59%
    03:00 +13°C° 0 mm 1 m/S 714 mmHg 57%
    04:00 +13°C° 0 mm 1 m/S 714 mmHg 55%
    05:00 +13°C° 0 mm 1 m/S 714 mmHg 53%
    06:00 +13°C° 0 mm 1 m/S 714 mmHg 51%
    07:00 +13°C° 0 mm 1 m/S 714 mmHg 49%
    08:00 +15°C° 0 mm 0 m/S 715 mmHg 44%
    09:00 +18°C° 0 mm 0 m/S 715 mmHg 39%
    10:00 +21°C° 0 mm 0 m/S 716 mmHg 34%
    11:00 +22°C° 0 mm 0 m/S 715 mmHg 32%
    12:00 +23°C° 0 mm 0 m/S 715 mmHg 30%
    13:00 +24°C° 0 mm 0 m/S 715 mmHg 28%
    14:00 +22°C° 0 mm 0 m/S 714 mmHg 35%
    15:00 +20°C° 0 mm 0 m/S 714 mmHg 41%
    16:00 +19°C° 0 mm 0 m/S 713 mmHg 48%
    17:00 +17°C° 0 mm 0 m/S 713 mmHg 50%
    18:00 +15°C° 0 mm 0 m/S 713 mmHg 52%
    19:00 +15°C° 0 mm 1 m/S 713 mmHg 54%
    20:00 +14°C° 0 mm 1 m/S 713 mmHg 54%
    21:00 +14°C° 0 mm 1 m/S 713 mmHg 54%
    22:00 +14°C° 0 mm 1 m/S 713 mmHg 54%
    23:00 +14°C° 0 mm 1 m/S 712 mmHg 54%

    28 Oktober, Montag

    Zeit Temperatur Niederschläge Wind Luftdruck Luftfeuchtigkeit
    00:00 +13°C° 0 mm 1 m/S 712 mmHg 54%
    01:00 +13°C° 0 mm 1 m/S 712 mmHg 53%
    02:00 +13°C° 0 mm 1 m/S 712 mmHg 53%
    03:00 +12°C° 0 mm 1 m/S 711 mmHg 52%
    04:00 +12°C° 0 mm 1 m/S 711 mmHg 51%
    05:00 +12°C° 0 mm 1 m/S 711 mmHg 50%
    06:00 +12°C° 0 mm 1 m/S 711 mmHg 48%
    07:00 +12°C° 0 mm 1 m/S 711 mmHg 47%
    08:00 +14°C° 0 mm 0 m/S 711 mmHg 42%
    09:00 +17°C° 0 mm 0 m/S 711 mmHg 38%
    10:00 +20°C° 0 mm 0 m/S 712 mmHg 33%
    11:00 +21°C° 0 mm 0 m/S 711 mmHg 31%
    12:00 +22°C° 0 mm 0 m/S 711 mmHg 29%
    13:00 +23°C° 0 mm 0 m/S 711 mmHg 27%
    14:00 +21°C° 0 mm 0 m/S 711 mmHg 34%
    15:00 +19°C° 0 mm 0 m/S 710 mmHg 40%
    16:00 +18°C° 0 mm 0 m/S 710 mmHg 46%
    17:00 +16°C° 0 mm 0 m/S 710 mmHg 49%
    18:00 +14°C° 0 mm 0 m/S 709 mmHg 51%
    19:00 +13°C° 0 mm 0 m/S 709 mmHg 53%
    20:00 +12°C° 0 mm 0 m/S 709 mmHg 53%
    21:00 +12°C° 0 mm 0 m/S 710 mmHg 54%
    22:00 +13°C° 0 mm 1 m/S 710 mmHg 54%
    23:00 +12°C° 0 mm 1 m/S 710 mmHg 54%

    29 Oktober, Dienstag

    Zeit Temperatur Niederschläge Wind Luftdruck Luftfeuchtigkeit
    00:00 +12°C° 0 mm 1 m/S 709 mmHg 53%
    01:00 +12°C° 0 mm 1 m/S 709 mmHg 53%
    02:00 +12°C° 0 mm 1 m/S 709 mmHg 53%
    03:00 +11°C° 0 mm 1 m/S 709 mmHg 53%
    04:00 +11°C° 0 mm 1 m/S 709 mmHg 52%
    05:00 +11°C° 0 mm 1 m/S 709 mmHg 51%
    06:00 +11°C° 0 mm 1 m/S 709 mmHg 50%
    07:00 +11°C° 0 mm 1 m/S 709 mmHg 49%
    08:00 +14°C° 0 mm 1 m/S 710 mmHg 44%
    09:00 +18°C° 0 mm 1 m/S 710 mmHg 39%
    10:00 +20°C° 0 mm 1 m/S 711 mmHg 33%
    11:00 +21°C° 0 mm 1 m/S 710 mmHg 32%
    12:00 +22°C° 0 mm 1 m/S 710 mmHg 30%
    13:00 +23°C° 0 mm 1 m/S 710 mmHg 29%
    14:00 +21°C° 0 mm 1 m/S 710 mmHg 36%
    15:00 +20°C° 0 mm 1 m/S 710 mmHg 42%
    16:00 +18°C° 0 mm 1 m/S 709 mmHg 49%
    17:00 +16°C° 0 mm 1 m/S 709 mmHg 53%
    18:00 +14°C° 0 mm 1 m/S 709 mmHg 56%
    19:00 +13°C° 0 mm 1 m/S 709 mmHg 60%
    20:00 +13°C° 0 mm 1 m/S 710 mmHg 62%
    21:00 +12°C° 0 mm 1 m/S 710 mmHg 63%
    22:00 +12°C° 0 mm 1 m/S 710 mmHg 65%
    23:00 +12°C° 0 mm 1 m/S 710 mmHg 66%
    Mehr zeigen